Tracking 23612 objects as of 17-Sep-2021
HD Live streaming from Space Station
objects crossing your sky now
Track INSPIRATION-4

APSTAR 1

Track APSTAR 1 now!
APSTAR 1 is classified as:


NORAD ID: 23185
Int'l Code: 1994-043A
Perigee: 36,018.4 km
Apogee: 36,073.2 km
Inclination: 11.6 °
Period: 1,449.0 minutes
Semi major axis: 42416 km
RCS: 25.1188 m2 (large)
Launch date: July 21, 1994
Source: People's Republic of China (PRC)
Launch site: Xichang Space Center, China (XSC)

24 C-band transponders.
aabbcc
Your satellite tracking list
Your tracking list is empty




NASA's NSSDC Master Catalog

Two Line Element Set (TLE):
1 23185U 94043A   21259.74107948 -.00000339  00000-0  00000-0 0  9994
2 23185  11.5549  29.3183 0006453  27.0100 337.9660  0.99379315 27841
Source of the keplerian elements: AFSPC